TRI161 YMML-YBCS

Flight info

Callsign TRI161
Flight time N/A
Altitude 38000
Route ML H50 MNG Q76 NONUM J64 CS
Aircraft A35K/H-SDE2E3GHIJ3J4J5LM1ORWXY/LB1D1

Departure

Time 2026-05-08 04:45
Airport Melbourne Airport (YMML)

Arrival

Time N/A
Airport Cairns International Airport (YBCS)
Time Latitude Longitude Altitude Speed Heading
2026-05-08 03:57 -37.66922 144.84511 397 ft 0 kts 11°
2026-05-08 04:30 -37.66934 144.84509 396 ft 3 kts
2026-05-08 04:31 -37.66955 144.84511 395 ft 3 kts 342°
2026-05-08 04:31 -37.66973 144.84520 392 ft 3 kts 331°
2026-05-08 04:31 -37.66990 144.84533 393 ft 3 kts 319°
2026-05-08 04:31 -37.67003 144.84552 392 ft 3 kts 301°
2026-05-08 04:32 -37.67012 144.84575 393 ft 3 kts 282°
2026-05-08 04:32 -37.67014 144.84594 392 ft 0 kts 268°
2026-05-08 04:36 -37.67014 144.84587 393 ft 2 kts 269°
2026-05-08 04:36 -37.67015 144.84544 393 ft 7 kts 267°
2026-05-08 04:36 -37.67025 144.84478 392 ft 9 kts 246°
2026-05-08 04:36 -37.67043 144.84412 393 ft 7 kts 254°
2026-05-08 04:37 -37.67052 144.84337 392 ft 10 kts 264°
2026-05-08 04:37 -37.67029 144.84261 391 ft 10 kts 321°
2026-05-08 04:37 -37.66964 144.84235 393 ft 10 kts 355°
2026-05-08 04:37 -37.66900 144.84219 394 ft 9 kts 348°
2026-05-08 04:38 -37.66838 144.84202 395 ft 9 kts 349°
2026-05-08 04:38 -37.66779 144.84190 396 ft 8 kts 352°
2026-05-08 04:38 -37.66727 144.84181 399 ft 7 kts 352°
2026-05-08 04:38 -37.66681 144.84173 399 ft 6 kts 352°
2026-05-08 04:39 -37.66645 144.84166 404 ft 5 kts 352°
2026-05-08 04:39 -37.66617 144.84161 405 ft 4 kts 352°
2026-05-08 04:39 -37.66577 144.84154 407 ft 9 kts 352°
2026-05-08 04:39 -37.66487 144.84137 411 ft 17 kts 351°
2026-05-08 04:40 -37.66377 144.84116 410 ft 12 kts 351°
2026-05-08 04:40 -37.66283 144.84098 412 ft 16 kts 351°
2026-05-08 04:40 -37.66158 144.84075 414 ft 21 kts 352°
2026-05-08 04:40 -37.66012 144.84047 417 ft 21 kts 351°
2026-05-08 04:41 -37.65865 144.84018 415 ft 21 kts 351°
2026-05-08 04:41 -37.65717 144.83990 421 ft 22 kts 351°
2026-05-08 04:41 -37.65608 144.83974 422 ft 12 kts 351°
2026-05-08 04:41 -37.65525 144.83954 417 ft 13 kts 348°
2026-05-08 04:42 -37.65435 144.83930 425 ft 14 kts 347°
2026-05-08 04:42 -37.65343 144.83891 428 ft 14 kts 327°
2026-05-08 04:42 -37.65298 144.83790 433 ft 13 kts 276°
2026-05-08 04:42 -37.65307 144.83684 442 ft 11 kts 262°
2026-05-08 04:43 -37.65310 144.83662 429 ft 0 kts 262°
2026-05-08 04:43 -37.65312 144.83652 432 ft 2 kts 257°
2026-05-08 04:44 -37.65320 144.83617 439 ft 6 kts 250°
2026-05-08 04:44 -37.65352 144.83555 427 ft 11 kts 224°
2026-05-08 04:44 -37.65439 144.83520 428 ft 16 kts 179°
2026-05-08 04:44 -37.65576 144.83543 430 ft 32 kts 172°
2026-05-08 04:45 -37.66040 144.83625 415 ft 101 kts 171°
2026-05-08 04:45 -37.66936 144.83797 411 ft 159 kts 173°
2026-05-08 04:45 -37.68104 144.84035 969 ft 168 kts 175°
2026-05-08 04:45 -37.69239 144.84247 1935 ft 169 kts 178°
2026-05-08 04:46 -37.70521 144.84455 2293 ft 200 kts 179°
2026-05-08 04:46 -37.71948 144.84222 2573 ft 218 kts 208°
2026-05-08 04:46 -37.73030 144.82829 2912 ft 238 kts 244°
2026-05-08 04:46 -37.73417 144.80686 3279 ft 262 kts 261°
2026-05-08 04:47 -37.73607 144.78340 3841 ft 274 kts 261°
2026-05-08 04:47 -37.73801 144.75925 4588 ft 281 kts 263°
2026-05-08 04:47 -37.73560 144.73455 5310 ft 295 kts 285°
2026-05-08 04:47 -37.72378 144.71284 6060 ft 312 kts 314°
2026-05-08 04:48 -37.70412 144.69988 6721 ft 331 kts 342°
2026-05-08 04:48 -37.68073 144.69932 7334 ft 345 kts 11°
2026-05-08 04:48 -37.65888 144.71182 7982 ft 351 kts 38°
2026-05-08 04:48 -37.64303 144.73488 8695 ft 348 kts 64°
2026-05-08 04:49 -37.63082 144.76137 9386 ft 355 kts 57°
2026-05-08 04:49 -37.61197 144.78192 10127 ft 365 kts 30°
2026-05-08 04:49 -37.58800 144.79319 10692 ft 372 kts 15°
2026-05-08 04:49 -37.56350 144.80404 11170 ft 379 kts 28°
2026-05-08 04:50 -37.55812 144.80770 11296 ft 380 kts 32°
2026-05-08 04:50 -37.53581 144.82604 11834 ft 385 kts 38°
2026-05-08 04:50 -37.51388 144.84576 12366 ft 391 kts 39°
2026-05-08 04:50 -37.49183 144.86593 13048 ft 391 kts 39°
2026-05-08 04:51 -37.47001 144.88593 13991 ft 383 kts 40°
2026-05-08 04:51 -37.44869 144.90537 14656 ft 374 kts 39°
2026-05-08 04:51 -37.42628 144.92173 15251 ft 369 kts 27°
2026-05-08 04:51 -37.40315 144.93401 15914 ft 360 kts 23°
2026-05-08 04:52 -37.38015 144.94553 16591 ft 351 kts 23°
2026-05-08 04:52 -37.35768 144.95680 17277 ft 343 kts 23°
2026-05-08 04:52 -37.33578 144.96782 17924 ft 337 kts 23°
2026-05-08 04:52 -37.31400 144.97882 18418 ft 337 kts 23°
2026-05-08 04:53 -37.29313 144.98937 18828 ft 338 kts 23°
2026-05-08 04:53 -37.27129 145.00041 19227 ft 339 kts 23°
2026-05-08 04:53 -37.24942 145.01145 19587 ft 340 kts 22°
2026-05-08 04:53 -37.22703 145.02276 19763 ft 354 kts 22°
2026-05-08 04:54 -37.20366 145.03456 19936 ft 368 kts 22°
2026-05-08 04:54 -37.17962 145.04669 20178 ft 380 kts 22°
2026-05-08 04:54 -37.15466 145.05927 20413 ft 391 kts 22°
2026-05-08 04:54 -37.12898 145.07220 20664 ft 402 kts 22°
2026-05-08 04:55 -37.10260 145.08547 20914 ft 413 kts 22°
2026-05-08 04:55 -37.07599 145.09885 21160 ft 423 kts 22°
2026-05-08 04:55 -37.04831 145.11275 21394 ft 433 kts 22°
2026-05-08 04:55 -37.02009 145.12691 21607 ft 442 kts 22°
2026-05-08 04:56 -36.99115 145.14142 21809 ft 452 kts 22°
2026-05-08 04:56 -36.96160 145.15623 22011 ft 461 kts 22°
2026-05-08 04:56 -36.93150 145.17129 22207 ft 470 kts 22°
2026-05-08 04:56 -36.90076 145.18470 22391 ft 478 kts 14°
2026-05-08 04:57 -36.86790 145.19180 22702 ft 479 kts
2026-05-08 04:57 -36.83466 145.19255 23085 ft 480 kts 355°
2026-05-08 04:57 -36.80116 145.19116 23435 ft 482 kts 353°
2026-05-08 04:57 -36.76758 145.18882 23801 ft 484 kts 353°
2026-05-08 04:58 -36.73397 145.18620 24122 ft 486 kts 352°
2026-05-08 04:58 -36.70022 145.18364 24428 ft 488 kts 353°
2026-05-08 04:58 -36.66615 145.18123 24743 ft 491 kts 353°
2026-05-08 04:58 -36.63196 145.17900 25065 ft 493 kts 353°
2026-05-08 04:59 -36.59756 145.17687 25379 ft 495 kts 353°
2026-05-08 04:59 -36.56298 145.17481 25722 ft 497 kts 354°
2026-05-08 04:59 -36.52824 145.17278 26068 ft 499 kts 354°
2026-05-08 04:59 -36.49398 145.17078 26402 ft 501 kts 354°
2026-05-08 05:00 -36.45855 145.16870 26763 ft 503 kts 354°
2026-05-08 05:00 -36.42354 145.16664 27117 ft 505 kts 354°
2026-05-08 05:00 -36.38891 145.16457 27644 ft 503 kts 354°
2026-05-08 05:00 -36.35380 145.16250 27842 ft 510 kts 354°
2026-05-08 05:01 -36.31812 145.16039 28148 ft 514 kts 354°
2026-05-08 05:01 -36.28237 145.15829 28588 ft 515 kts 354°
2026-05-08 05:01 -36.24664 145.15619 29013 ft 516 kts 354°
2026-05-08 05:01 -36.21068 145.15408 29414 ft 518 kts 354°
2026-05-08 05:02 -36.17445 145.15195 29798 ft 521 kts 354°
2026-05-08 05:02 -36.13810 145.14982 30200 ft 523 kts 354°
2026-05-08 05:02 -36.10172 145.14769 30575 ft 525 kts 354°
2026-05-08 05:02 -36.06510 145.14554 30927 ft 527 kts 354°
2026-05-08 05:03 -36.02877 145.14340 31257 ft 530 kts 354°
2026-05-08 05:03 -35.99182 145.14123 31596 ft 532 kts 354°
2026-05-08 05:03 -35.95484 145.13907 31960 ft 533 kts 354°
2026-05-08 05:03 -35.91767 145.13690 32290 ft 535 kts 354°
2026-05-08 05:04 -35.88033 145.13473 32604 ft 537 kts 355°
2026-05-08 05:04 -35.84286 145.13254 32908 ft 540 kts 355°
2026-05-08 05:04 -35.80511 145.13034 33233 ft 541 kts 355°
2026-05-08 05:04 -35.76741 145.12815 33531 ft 543 kts 355°
2026-05-08 05:05 -35.72962 145.12596 33843 ft 544 kts 355°
2026-05-08 05:05 -35.69231 145.12380 34272 ft 543 kts 355°
2026-05-08 05:05 -35.65412 145.12159 34687 ft 541 kts 355°
2026-05-08 05:05 -35.61718 145.11946 35162 ft 537 kts 355°
2026-05-08 05:06 -35.58004 145.11733 35646 ft 533 kts 354°
2026-05-08 05:06 -35.54300 145.11520 36122 ft 529 kts 354°
2026-05-08 05:06 -35.50634 145.11308 36602 ft 525 kts 354°
2026-05-08 05:06 -35.46975 145.11098 37062 ft 522 kts 354°
2026-05-08 05:07 -35.43356 145.10889 37508 ft 519 kts 354°
2026-05-08 05:07 -35.39807 145.10684 37930 ft 516 kts 353°
2026-05-08 05:07 -35.36225 145.10477 38220 ft 516 kts 353°
2026-05-08 05:07 -35.32625 145.10267 38260 ft 519 kts 353°
2026-05-08 05:08 -35.25434 145.09850 38250 ft 517 kts 353°
2026-05-08 05:08 -35.18248 145.09438 38260 ft 515 kts 353°
2026-05-08 05:09 -35.11098 145.09028 38257 ft 514 kts 353°
2026-05-08 05:09 -35.03952 145.08620 38260 ft 513 kts 353°
2026-05-08 05:10 -34.93252 145.08110 38261 ft 514 kts 358°
2026-05-08 05:11 -34.86142 145.08584 38271 ft 515 kts
2026-05-08 05:11 -34.78991 145.09204 38265 ft 514 kts
2026-05-08 05:12 -34.71872 145.09828 38267 ft 513 kts
2026-05-08 05:12 -34.64746 145.10436 38269 ft 512 kts 360°
2026-05-08 05:13 -34.57627 145.11034 38269 ft 511 kts 360°
2026-05-08 05:13 -34.50527 145.11629 38268 ft 510 kts 360°
2026-05-08 05:14 -34.43449 145.12222 38269 ft 509 kts 359°
2026-05-08 05:14 -34.36439 145.12808 38268 ft 507 kts 359°
2026-05-08 05:15 -34.29366 145.13397 38269 ft 506 kts 359°
2026-05-08 05:15 -34.22386 145.13975 38271 ft 505 kts 359°
2026-05-08 05:16 -34.15392 145.14557 38272 ft 503 kts 359°
2026-05-08 05:16 -34.08395 145.15138 38271 ft 503 kts 359°
2026-05-08 05:17 -34.01421 145.15716 38273 ft 502 kts 359°
2026-05-08 05:17 -33.94451 145.16293 38271 ft 501 kts 359°
2026-05-08 05:18 -33.87536 145.16865 38277 ft 500 kts 359°
2026-05-08 05:18 -33.80596 145.17436 38267 ft 500 kts 359°
2026-05-08 05:19 -33.73644 145.18008 38271 ft 500 kts 359°
2026-05-08 05:19 -33.66959 145.18558 38269 ft 499 kts 359°
2026-05-08 05:20 -33.60068 145.19123 38282 ft 499 kts 359°
2026-05-08 05:20 -33.53137 145.19691 38280 ft 499 kts 358°
2026-05-08 05:21 -33.46201 145.20258 38275 ft 499 kts 358°
2026-05-08 05:21 -33.40436 145.20729 38271 ft 498 kts 359°
2026-05-08 05:22 -33.33517 145.21293 38277 ft 498 kts 358°
2026-05-08 05:22 -33.30057 145.21574 38106 ft 497 kts
2026-05-08 05:22 -33.25484 145.21939 38269 ft 497 kts
2026-05-08 05:23 -33.19717 145.22411 38278 ft 494 kts
2026-05-08 05:23 -33.12863 145.22973 38271 ft 493 kts
2026-05-08 05:24 -33.06021 145.23528 38279 ft 493 kts
2026-05-08 05:24 -32.99189 145.24081 38278 ft 493 kts
2026-05-08 05:25 -32.92392 145.24631 38273 ft 492 kts
2026-05-08 05:25 -32.85559 145.25182 38272 ft 492 kts
2026-05-08 05:26 -32.78720 145.25733 38279 ft 491 kts
2026-05-08 05:26 -32.71897 145.26282 38268 ft 491 kts
2026-05-08 05:27 -32.65086 145.26830 38276 ft 490 kts
2026-05-08 05:27 -32.58279 145.27376 38281 ft 490 kts
2026-05-08 05:28 -32.51519 145.27917 38284 ft 489 kts
2026-05-08 05:28 -32.44718 145.28461 38289 ft 489 kts
2026-05-08 05:29 -32.37935 145.29002 38286 ft 488 kts
2026-05-08 05:29 -32.31187 145.29540 38283 ft 488 kts
2026-05-08 05:30 -32.24371 145.30082 38285 ft 488 kts 360°
2026-05-08 05:30 -32.17688 145.30614 38287 ft 488 kts 360°
2026-05-08 05:31 -32.10924 145.31151 38287 ft 488 kts 360°
2026-05-08 05:31 -32.04136 145.31689 38284 ft 488 kts 360°
2026-05-08 05:32 -31.97359 145.32109 38284 ft 486 kts 357°
2026-05-08 05:32 -31.90645 145.32221 38288 ft 486 kts 356°
2026-05-08 05:33 -31.83883 145.32326 38284 ft 485 kts 356°
2026-05-08 05:33 -31.77126 145.32483 38287 ft 486 kts 357°
2026-05-08 05:34 -31.70348 145.32664 38287 ft 486 kts 357°
2026-05-08 05:34 -31.63587 145.32848 38287 ft 486 kts 357°
2026-05-08 05:35 -31.56832 145.33029 38288 ft 485 kts 356°
2026-05-08 05:35 -31.50080 145.33208 38285 ft 485 kts 356°
2026-05-08 05:36 -31.43365 145.33385 38288 ft 485 kts 356°
2026-05-08 05:36 -31.36604 145.33564 38290 ft 485 kts 356°
2026-05-08 05:37 -31.29832 145.33748 38284 ft 485 kts 356°
2026-05-08 05:37 -31.23114 145.33919 38289 ft 485 kts 356°
2026-05-08 05:38 -31.16368 145.34093 38288 ft 485 kts 356°
2026-05-08 05:38 -31.09603 145.34271 38292 ft 484 kts 356°
2026-05-08 05:39 -31.02860 145.34449 38293 ft 484 kts 356°
2026-05-08 05:39 -30.96158 145.34625 38287 ft 484 kts 356°
2026-05-08 05:40 -30.89419 145.34802 38287 ft 484 kts 356°
2026-05-08 05:40 -30.82685 145.34977 38288 ft 484 kts 356°
2026-05-08 05:41 -30.75965 145.35153 38288 ft 483 kts 356°
2026-05-08 05:41 -30.69235 145.35328 38291 ft 483 kts 356°
2026-05-08 05:42 -30.62546 145.35502 38290 ft 483 kts 356°
2026-05-08 05:42 -30.55829 145.35677 38289 ft 482 kts 355°
2026-05-08 05:43 -30.49112 145.35851 38290 ft 482 kts 355°
2026-05-08 05:43 -30.42414 145.36025 38290 ft 481 kts 355°
2026-05-08 05:44 -30.35717 145.36198 38290 ft 481 kts 355°
2026-05-08 05:44 -30.29060 145.36370 38290 ft 480 kts 355°
2026-05-08 05:45 -30.22375 145.36542 38289 ft 479 kts 355°
2026-05-08 05:45 -30.15717 145.36714 38288 ft 479 kts 355°
2026-05-08 05:46 -30.09058 145.36885 38290 ft 478 kts 355°
2026-05-08 05:46 -30.02421 145.37056 38290 ft 477 kts 355°
2026-05-08 05:47 -29.95788 145.37226 38286 ft 476 kts 355°
2026-05-08 05:47 -29.89162 145.37396 38289 ft 475 kts 355°
2026-05-08 05:48 -29.82579 145.37564 38283 ft 474 kts 354°
2026-05-08 05:48 -29.75988 145.37733 38280 ft 473 kts 354°
2026-05-08 05:49 -29.69412 145.37900 38295 ft 473 kts 354°
2026-05-08 05:49 -29.62836 145.38067 38276 ft 472 kts 354°
2026-05-08 05:50 -29.56260 145.38235 38276 ft 471 kts 354°
2026-05-08 05:50 -29.49703 145.38402 38279 ft 470 kts 354°
2026-05-08 05:51 -29.43172 145.38567 38286 ft 470 kts 354°
2026-05-08 05:51 -29.36642 145.38733 38281 ft 469 kts 354°
2026-05-08 05:52 -29.30113 145.38898 38282 ft 468 kts 354°
2026-05-08 05:52 -29.23639 145.39062 38279 ft 467 kts 354°
2026-05-08 05:53 -29.17144 145.39226 38277 ft 466 kts 354°
2026-05-08 05:53 -29.10641 145.39390 38277 ft 466 kts 353°
2026-05-08 05:54 -29.04208 145.39553 38275 ft 465 kts 353°
2026-05-08 05:54 -28.97731 145.39719 38276 ft 464 kts 353°
2026-05-08 05:55 -28.91271 145.39882 38272 ft 463 kts 353°
2026-05-08 05:55 -28.84867 145.40039 38276 ft 463 kts 353°
2026-05-08 05:56 -28.78420 145.40199 38272 ft 462 kts 353°
2026-05-08 05:56 -28.71987 145.40360 38272 ft 462 kts 353°
2026-05-08 05:57 -28.65559 145.40521 38270 ft 461 kts 353°
2026-05-08 05:57 -28.59138 145.40682 38271 ft 461 kts 353°
2026-05-08 05:58 -28.52771 145.40840 38265 ft 460 kts 353°
2026-05-08 05:58 -28.46373 145.41000 38266 ft 459 kts 352°
2026-05-08 05:59 -28.39981 145.41158 38274 ft 459 kts 352°
2026-05-08 05:59 -28.33585 145.41317 38261 ft 459 kts 352°
2026-05-08 06:00 -28.27204 145.41475 38264 ft 458 kts 352°
2026-05-08 06:00 -28.20868 145.41633 38265 ft 458 kts 352°
2026-05-08 06:01 -28.14490 145.41791 38263 ft 458 kts 352°
2026-05-08 06:01 -28.08131 145.41948 38265 ft 457 kts 352°
2026-05-08 06:02 -28.01773 145.42105 38260 ft 457 kts 352°
2026-05-08 06:02 -27.95413 145.42262 38257 ft 456 kts 352°
2026-05-08 06:03 -27.89067 145.42418 38259 ft 456 kts 352°
2026-05-08 06:03 -27.82725 145.42575 38257 ft 455 kts 352°
2026-05-08 06:04 -27.76380 145.42730 38259 ft 455 kts 351°
2026-05-08 06:04 -27.70073 145.42885 38260 ft 455 kts 351°
2026-05-08 06:05 -27.63741 145.43041 38255 ft 454 kts 351°
2026-05-08 06:05 -27.57450 145.43195 38255 ft 454 kts 351°
2026-05-08 06:06 -27.51125 145.43349 38254 ft 454 kts 351°
2026-05-08 06:06 -27.44807 145.43503 38252 ft 454 kts 351°
2026-05-08 06:07 -27.38492 145.43658 38251 ft 454 kts 351°
2026-05-08 06:07 -27.32173 145.43812 38250 ft 453 kts 351°
2026-05-08 06:08 -27.25908 145.43967 38245 ft 453 kts 351°
2026-05-08 06:08 -27.19600 145.44122 38247 ft 453 kts 351°
2026-05-08 06:09 -27.13303 145.44273 38245 ft 453 kts 351°
2026-05-08 06:09 -27.07009 145.44425 38245 ft 452 kts 351°
2026-05-08 06:10 -27.01769 145.44552 38248 ft 452 kts 351°
2026-05-08 06:10 -26.94403 145.44730 38246 ft 452 kts 350°
2026-05-08 06:11 -26.88154 145.44882 38239 ft 452 kts 350°
2026-05-08 06:11 -26.82880 145.45009 38246 ft 451 kts 350°
2026-05-08 06:12 -26.76643 145.45159 38244 ft 451 kts 350°
2026-05-08 06:12 -26.70357 145.45310 38240 ft 451 kts 350°
2026-05-08 06:13 -26.64093 145.45461 38247 ft 451 kts 350°
2026-05-08 06:13 -26.57820 145.45612 38234 ft 451 kts 350°
2026-05-08 06:14 -26.51553 145.45763 38238 ft 450 kts 350°
2026-05-08 06:14 -26.45277 145.45914 38237 ft 450 kts 350°
2026-05-08 06:15 -26.39043 145.46063 38242 ft 450 kts 350°
2026-05-08 06:15 -26.32780 145.46214 38231 ft 450 kts 350°
2026-05-08 06:16 -26.26520 145.46364 38226 ft 449 kts 350°
2026-05-08 06:16 -26.20274 145.46513 38229 ft 449 kts 350°
2026-05-08 06:17 -26.10872 145.46737 38223 ft 449 kts 350°
2026-05-08 06:17 -26.04664 145.46885 38221 ft 449 kts 350°
2026-05-08 06:18 -25.98393 145.47034 38220 ft 449 kts 350°
2026-05-08 06:18 -25.92135 145.47183 38221 ft 450 kts 350°
2026-05-08 06:19 -25.85914 145.47331 38217 ft 450 kts 350°
2026-05-08 06:19 -25.79648 145.47480 38216 ft 450 kts 349°
2026-05-08 06:20 -25.73377 145.47628 38221 ft 450 kts 349°
2026-05-08 06:20 -25.67116 145.47777 38217 ft 450 kts 349°
2026-05-08 06:21 -25.60851 145.47925 38205 ft 450 kts 349°
2026-05-08 06:21 -25.54620 145.48073 38206 ft 450 kts 349°
2026-05-08 06:22 -25.48365 145.48221 38209 ft 450 kts 349°
2026-05-08 06:22 -25.42092 145.48369 38205 ft 450 kts 349°
2026-05-08 06:23 -25.35831 145.48516 38203 ft 450 kts 349°
2026-05-08 06:23 -25.29601 145.48663 38202 ft 450 kts 349°
2026-05-08 06:24 -25.23336 145.48810 38198 ft 450 kts 349°
2026-05-08 06:24 -25.17071 145.48957 38201 ft 451 kts 349°
2026-05-08 06:25 -25.10798 145.49105 38204 ft 451 kts 349°
2026-05-08 06:25 -25.04508 145.49252 38194 ft 451 kts 349°
2026-05-08 06:26 -24.98231 145.49400 38192 ft 451 kts 349°
2026-05-08 06:26 -24.91958 145.49547 38194 ft 451 kts 349°
2026-05-08 06:27 -24.85724 145.49692 38193 ft 451 kts 349°
2026-05-08 06:27 -24.79434 145.49839 38190 ft 450 kts 348°
2026-05-08 06:28 -24.73167 145.49985 38190 ft 450 kts 348°
2026-05-08 06:28 -24.66906 145.50131 38191 ft 450 kts 348°
2026-05-08 06:29 -24.60691 145.50276 38187 ft 450 kts 348°
2026-05-08 06:29 -24.54437 145.50422 38188 ft 449 kts 348°
2026-05-08 06:30 -24.48186 145.50566 38186 ft 450 kts 348°
2026-05-08 06:30 -24.41914 145.50712 38180 ft 450 kts 348°
2026-05-08 06:31 -24.35635 145.50857 38174 ft 450 kts 348°
2026-05-08 06:31 -24.29389 145.51002 38178 ft 450 kts 348°
2026-05-08 06:32 -24.23145 145.51147 38175 ft 450 kts 348°
2026-05-08 06:32 -24.16877 145.51292 38173 ft 450 kts 348°
2026-05-08 06:33 -24.10617 145.51437 38171 ft 450 kts 348°
2026-05-08 06:33 -24.04387 145.51582 38169 ft 450 kts 348°
2026-05-08 06:34 -23.98127 145.51726 38164 ft 450 kts 348°
2026-05-08 06:34 -23.91850 145.51877 38161 ft 450 kts 348°
2026-05-08 06:35 -23.85585 145.52016 38162 ft 450 kts 348°
2026-05-08 06:35 -23.79322 145.52154 38162 ft 450 kts 348°
2026-05-08 06:36 -23.73084 145.52295 38154 ft 450 kts 348°
2026-05-08 06:36 -23.66799 145.52439 38154 ft 450 kts 348°
2026-05-08 06:37 -23.60573 145.52580 38145 ft 450 kts 348°
2026-05-08 06:37 -23.54295 145.52723 38150 ft 451 kts 348°
2026-05-08 06:38 -23.48019 145.52865 38145 ft 451 kts 348°
2026-05-08 06:38 -23.41738 145.53008 38146 ft 451 kts 348°
2026-05-08 06:39 -23.35439 145.53151 38143 ft 452 kts 348°
2026-05-08 06:39 -23.29181 145.53293 38142 ft 452 kts 348°
2026-05-08 06:40 -23.22880 145.53436 38140 ft 453 kts 348°
2026-05-08 06:40 -23.16572 145.53578 38136 ft 453 kts 348°
2026-05-08 06:41 -23.10265 145.53721 38133 ft 453 kts 348°
2026-05-08 06:41 -23.03952 145.53864 38129 ft 453 kts 348°
2026-05-08 06:42 -22.97673 145.54005 38123 ft 454 kts 348°
2026-05-08 06:42 -22.91345 145.54148 38122 ft 454 kts 348°
2026-05-08 06:43 -22.85071 145.54289 38119 ft 454 kts 348°
2026-05-08 06:43 -22.78729 145.54432 38116 ft 454 kts 348°
2026-05-08 06:44 -22.72408 145.54574 38117 ft 454 kts 348°
2026-05-08 06:44 -22.66130 145.54714 38111 ft 454 kts 348°
2026-05-08 06:45 -22.59797 145.54857 38107 ft 454 kts 348°
2026-05-08 06:45 -22.53480 145.54998 38101 ft 454 kts 349°
2026-05-08 06:46 -22.47159 145.55140 38109 ft 454 kts 349°